When you browse on this site, cookies collect data to enhance your experience and personalize the content and advertising you see.
Visit our Privacy Policy to learn more. By continuing to use the site, you agree to this use of cookies and data.
  • In Sweden
  • List of Countries
  • For 7 days
  • Water Temperature
  • Weather Map
  • Weather Widgets
  • user-avatar
    Login

    Hourly Weather Aguilon

    Today, 21 November, Thursday

    Time Temperature Precipitation Wind Pressure Humidity
    00:00 +6°C° 0.1 mm 2 mps 691 mmHg 81%
    01:00 +5°C° 0 mm 3 mps 690 mmHg 80%
    02:00 +4°C° 0 mm 3 mps 690 mmHg 79%
    03:00 +4°C° 0 mm 4 mps 690 mmHg 78%
    04:00 +4°C° 0 mm 4 mps 690 mmHg 79%
    05:00 +4°C° 0 mm 3 mps 690 mmHg 81%
    06:00 +3°C° 0 mm 3 mps 690 mmHg 82%
    07:00 +4°C° 0 mm 4 mps 690 mmHg 78%
    08:00 +5°C° 0 mm 5 mps 690 mmHg 74%
    09:00 +5°C° 0 mm 6 mps 691 mmHg 70%
    10:00 +7°C° 0 mm 6 mps 691 mmHg 65%
    11:00 +8°C° 0 mm 6 mps 691 mmHg 60%
    12:00 +9°C° 0 mm 6 mps 691 mmHg 55%
    13:00 +9°C° 0 mm 6 mps 691 mmHg 55%
    14:00 +9°C° 0 mm 6 mps 690 mmHg 55%
    15:00 +9°C° 0 mm 6 mps 690 mmHg 55%
    16:00 +8°C° 0 mm 5 mps 690 mmHg 61%
    17:00 +7°C° 0 mm 4 mps 690 mmHg 66%
    18:00 +7°C° 0 mm 3 mps 690 mmHg 72%
    19:00 +5°C° 0 mm 3 mps 690 mmHg 74%
    20:00 +5°C° 0 mm 3 mps 690 mmHg 75%
    21:00 +5°C° 0 mm 3 mps 690 mmHg 77%
    22:00 +5°C° 0 mm 3 mps 690 mmHg 78%
    23:00 +5°C° 0 mm 3 mps 690 mmHg 79%

    Tomorrow, 22 November, Friday

    Time Temperature Precipitation Wind Pressure Humidity
    00:00 +4°C° 0 mm 3 mps 690 mmHg 80%
    01:00 +5°C° 0 mm 3 mps 689 mmHg 79%
    02:00 +5°C° 0 mm 3 mps 689 mmHg 79%
    03:00 +5°C° 0 mm 3 mps 688 mmHg 78%
    04:00 +5°C° 0.1 mm 3 mps 688 mmHg 80%
    05:00 +5°C° 0.1 mm 4 mps 687 mmHg 81%
    06:00 +5°C° 0.1 mm 4 mps 687 mmHg 83%
    07:00 +6°C° 0.3 mm 4 mps 687 mmHg 82%
    08:00 +6°C° 0.3 mm 4 mps 687 mmHg 82%
    09:00 +6°C° 0.3 mm 4 mps 686 mmHg 81%
    10:00 +7°C° 0.3 mm 5 mps 686 mmHg 79%
    11:00 +8°C° 0.3 mm 6 mps 685 mmHg 76%
    12:00 +8°C° 0.3 mm 7 mps 684 mmHg 74%
    13:00 +9°C° 0.4 mm 7 mps 683 mmHg 76%
    14:00 +9°C° 0.4 mm 8 mps 682 mmHg 77%
    15:00 +9°C° 0.4 mm 8 mps 681 mmHg 79%
    16:00 +8°C° 0.4 mm 9 mps 680 mmHg 76%
    17:00 +8°C° 0.4 mm 9 mps 680 mmHg 73%
    18:00 +9°C° 0.4 mm 10 mps 680 mmHg 71%
    19:00 +8°C° 0 mm 10 mps 679 mmHg 72%
    20:00 +7°C° 0 mm 9 mps 679 mmHg 73%
    21:00 +6°C° 0 mm 9 mps 679 mmHg 74%
    22:00 +6°C° 0 mm 9 mps 679 mmHg 74%
    23:00 +6°C° 0 mm 9 mps 679 mmHg 74%

    Day after tomorrow, 23 November, Saturday

    Time Temperature Precipitation Wind Pressure Humidity
    00:00 +6°C° 0 mm 9 mps 679 mmHg 74%
    01:00 +6°C° 0 mm 9 mps 679 mmHg 74%
    02:00 +6°C° 0 mm 9 mps 679 mmHg 74%
    03:00 +6°C° 0 mm 9 mps 679 mmHg 74%
    04:00 +5°C° 0.3 mm 9 mps 680 mmHg 78%
    05:00 +5°C° 0.3 mm 8 mps 680 mmHg 82%
    06:00 +4°C° 0.3 mm 8 mps 681 mmHg 86%
    07:00 +3°C° 0.7 mm 9 mps 682 mmHg 80%
    08:00 +3°C° 0.7 mm 10 mps 683 mmHg 75%
    09:00 +3°C° 0.7 mm 11 mps 684 mmHg 69%
    10:00 +4°C° 0 mm 11 mps 684 mmHg 65%
    11:00 +4°C° 0 mm 11 mps 685 mmHg 62%
    12:00 +6°C° 0 mm 11 mps 685 mmHg 58%
    13:00 +6°C° 0 mm 11 mps 685 mmHg 59%
    14:00 +6°C° 0 mm 11 mps 686 mmHg 60%
    15:00 +6°C° 0 mm 11 mps 686 mmHg 61%
    16:00 +5°C° 0 mm 9 mps 687 mmHg 64%
    17:00 +4°C° 0 mm 7 mps 688 mmHg 67%
    18:00 +5°C° 0 mm 5 mps 688 mmHg 71%
    19:00 +5°C° 0 mm 5 mps 689 mmHg 71%
    20:00 +4°C° 0 mm 6 mps 690 mmHg 71%
    21:00 +4°C° 0 mm 6 mps 691 mmHg 72%
    22:00 +4°C° 0 mm 6 mps 691 mmHg 73%
    23:00 +4°C° 0 mm 6 mps 692 mmHg 73%

    24 November, Sunday

    Time Temperature Precipitation Wind Pressure Humidity
    00:00 +3°C° 0 mm 7 mps 692 mmHg 74%
    01:00 +3°C° 0 mm 6 mps 692 mmHg 76%
    02:00 +3°C° 0 mm 6 mps 692 mmHg 78%
    03:00 +2°C° 0 mm 6 mps 692 mmHg 80%
    04:00 +2°C° 0 mm 6 mps 693 mmHg 81%
    05:00 +2°C° 0 mm 6 mps 693 mmHg 81%
    06:00 +2°C° 0 mm 6 mps 694 mmHg 82%
    07:00 +3°C° 0 mm 6 mps 694 mmHg 79%
    08:00 +3°C° 0 mm 6 mps 695 mmHg 76%
    09:00 +4°C° 0 mm 6 mps 695 mmHg 73%
    10:00 +5°C° 0 mm 7 mps 695 mmHg 69%
    11:00 +6°C° 0 mm 8 mps 696 mmHg 66%
    12:00 +7°C° 0 mm 8 mps 696 mmHg 62%
    13:00 +7°C° 0 mm 8 mps 696 mmHg 62%
    14:00 +8°C° 0 mm 7 mps 696 mmHg 61%
    15:00 +8°C° 0 mm 7 mps 696 mmHg 60%
    16:00 +7°C° 0 mm 6 mps 696 mmHg 63%
    17:00 +6°C° 0 mm 4 mps 696 mmHg 66%
    18:00 +5°C° 0 mm 3 mps 697 mmHg 69%
    19:00 +5°C° 0 mm 3 mps 697 mmHg 69%
    20:00 +4°C° 0 mm 3 mps 697 mmHg 69%
    21:00 +4°C° 0 mm 3 mps 697 mmHg 69%
    22:00 +4°C° 0 mm 3 mps 697 mmHg 70%
    23:00 +4°C° 0 mm 4 mps 697 mmHg 70%

    25 November, Monday

    Time Temperature Precipitation Wind Pressure Humidity
    00:00 +3°C° 0 mm 4 mps 697 mmHg 70%
    01:00 +3°C° 0 mm 4 mps 697 mmHg 70%
    02:00 +3°C° 0 mm 4 mps 697 mmHg 70%
    03:00 +3°C° 0 mm 3 mps 697 mmHg 70%
    04:00 +3°C° 0 mm 3 mps 697 mmHg 70%
    05:00 +3°C° 0 mm 3 mps 697 mmHg 69%
    06:00 +4°C° 0 mm 3 mps 697 mmHg 68%
    07:00 +5°C° 0 mm 3 mps 697 mmHg 68%
    08:00 +7°C° 0 mm 3 mps 698 mmHg 68%
    09:00 +7°C° 0 mm 4 mps 698 mmHg 67%
    10:00 +8°C° 0 mm 4 mps 698 mmHg 66%
    11:00 +10°C° 0 mm 5 mps 698 mmHg 64%
    12:00 +12°C° 0 mm 5 mps 698 mmHg 63%
    13:00 +12°C° 0 mm 5 mps 698 mmHg 63%
    14:00 +13°C° 0 mm 5 mps 698 mmHg 64%
    15:00 +13°C° 0 mm 5 mps 698 mmHg 64%
    16:00 +11°C° 0 mm 4 mps 698 mmHg 69%
    17:00 +10°C° 0 mm 3 mps 698 mmHg 74%
    18:00 +9°C° 0 mm 2 mps 698 mmHg 79%
    19:00 +9°C° 0 mm 2 mps 698 mmHg 79%
    20:00 +8°C° 0 mm 3 mps 698 mmHg 79%
    21:00 +8°C° 0 mm 3 mps 699 mmHg 79%
    22:00 +8°C° 0 mm 3 mps 699 mmHg 79%
    23:00 +8°C° 0 mm 3 mps 698 mmHg 80%

    26 November, Tuesday

    Time Temperature Precipitation Wind Pressure Humidity
    00:00 +8°C° 0 mm 3 mps 698 mmHg 80%
    01:00 +7°C° 0 mm 3 mps 698 mmHg 81%
    02:00 +7°C° 0 mm 2 mps 698 mmHg 82%
    03:00 +7°C° 0 mm 2 mps 697 mmHg 83%
    04:00 +7°C° 0 mm 3 mps 697 mmHg 84%
    05:00 +7°C° 0 mm 3 mps 697 mmHg 84%
    06:00 +6°C° 0 mm 4 mps 697 mmHg 84%
    07:00 +7°C° 0 mm 4 mps 697 mmHg 81%
    08:00 +8°C° 0 mm 4 mps 697 mmHg 79%
    09:00 +10°C° 0 mm 4 mps 698 mmHg 76%
    10:00 +12°C° 0 mm 5 mps 697 mmHg 71%
    11:00 +13°C° 0 mm 6 mps 697 mmHg 66%
    12:00 +15°C° 0 mm 6 mps 697 mmHg 62%
    13:00 +15°C° 0 mm 6 mps 697 mmHg 63%
    14:00 +15°C° 0 mm 6 mps 697 mmHg 64%
    15:00 +15°C° 0 mm 5 mps 696 mmHg 66%
    16:00 +14°C° 0 mm 5 mps 696 mmHg 71%
    17:00 +13°C° 0 mm 5 mps 696 mmHg 76%
    18:00 +12°C° 0 mm 5 mps 696 mmHg 81%
    19:00 +12°C° 0 mm 5 mps 696 mmHg 82%
    20:00 +10°C° 0 mm 5 mps 696 mmHg 83%
    21:00 +10°C° 0 mm 5 mps 696 mmHg 84%
    22:00 +10°C° 0 mm 6 mps 696 mmHg 82%
    23:00 +11°C° 0 mm 6 mps 695 mmHg 79%
    Show more